EW3156 Weather Reports


time (UTC)temp
C
wind
direction
speed
KPH
gust
KPH
rain 1hr
cm
rain 24hr
cm
rain mn
cm
humidity
%
barometer
mb
20260510213033 27 110 0.0 4.8 0.00 0.00 0.00 64 1015.7
20260510211554 27 108 0.0 4.8 0.00 0.00 0.00 63 1015.6
20260510210033 27 96 0.0 1.6 0.00 0.00 0.00 65 1015.6
20260510204528 27 93 0.0 4.8 0.00 0.00 0.00 65 1015.6
20260510203031 26 94 0.0 8.0 0.00 0.00 0.00 68 1015.7
20260510201525 26 84 0.0 4.8 0.00 0.00 0.00 70 1016.0
20260510200024 26 98 1.6 6.4 0.00 0.00 0.00 67 1016.0
20260510194521 25 123 1.6 4.8 0.00 0.00 0.00 70 1016.1
20260510193019 25 257 1.6 6.4 0.00 0.00 0.00 69 1016.1
20260510191525 25 80 0.0 6.4 0.00 0.00 0.00 71 1016.2
20260510190015 25 94 0.0 8.0 0.00 0.00 0.00 74 1016.3
20260510184510 24 82 3.2 6.4 0.00 0.00 0.00 72 1016.7
20260510183008 23 82 3.2 8.0 0.00 0.00 0.00 76 1016.7
20260510181504 24 86 3.2 6.4 0.00 0.00 0.00 74 1016.8
20260510180109 23 107 1.6 4.8 0.00 0.00 0.00 78 1016.9
20260510174606 22 142 0.0 4.8 0.00 0.00 0.00 82 1017.1
20260510173059 22 119 0.0 3.2 0.00 0.00 0.00 82 1017.4
20260510171550 21 90 1.6 4.8 0.00 0.00 0.00 86 1017.5
20260510164547 21 83 0.0 3.2 0.00 0.00 0.00 85 1017.9
20260510163043 21 81 0.0 6.4 0.00 0.00 0.00 86 1017.6
20260510161539 20 84 0.0 1.6 0.00 0.00 0.00 88 1017.6
20260510160042 20 85 1.6 4.8 0.00 0.00 0.00 89 1017.6
20260510154551 20 84 3.2 4.8 0.00 0.00 0.00 89 1017.6
20260510153033 19 78 0.0 1.6 0.00 0.00 0.00 93 1017.6
20260510151531 18 78 0.0 6.4 0.00 0.00 0.00 95 1017.7
20260510150027 18 108 0.0 1.6 0.00 0.00 0.00 97 1017.7
20260510144536 17 108 1.6 4.8 0.00 0.00 0.00 98 1017.7
20260510143035 17 108 0.0 3.2 0.00 0.00 0.00 99 1017.6
20260510141519 17 108 0.0 3.2 0.00 0.00 0.00 99 1017.7
20260510140017 17 108 0.0 3.2 0.00 0.00 0.00 99 1017.7
20260510134515 17 109 0.0 1.6 0.00 0.00 0.00 99 1017.6
20260510133014 17 109 0.0 0.0 0.00 0.00 0.00 99 1017.5
20260510131510 17 109 0.0 3.2 0.00 0.00 0.00 99 1017.3
20260510130012 17 108 0.0 1.6 0.00 0.00 0.00 99 1017.2
20260510124505 17 108 0.0 0.0 0.00 0.00 0.00 99 1017.1
20260510123003 17 108 0.0 1.6 0.00 0.00 0.00 99 1016.9
20260510121600 17 108 0.0 1.6 0.00 0.00 0.00 99 1016.7
20260510120057 17 108 0.0 1.6 0.00 0.00 0.00 99 1016.5
20260510114555 17 108 0.0 0.0 0.00 0.00 0.00 99 1016.2
20260510113051 17 108 0.0 1.6 0.00 0.00 0.00 99 1015.8
20260510111548 17 108 0.0 1.6 0.00 0.00 0.00 99 1015.4
20260510110050 17 108 0.0 0.0 0.00 0.00 0.00 99 1015.1
20260510104544 17 108 0.0 1.6 0.00 0.00 0.00 99 1014.9
20260510103042 17 107 0.0 0.0 0.00 0.00 0.00 99 1014.8
20260510101541 17 107 0.0 0.0 0.00 0.00 0.00 99 1014.6
20260510100039 16 107 0.0 0.0 0.00 0.00 0.00 99 1014.5
20260510094548 16 107 0.0 0.0 0.00 0.00 0.00 99 1014.3
20260510093053 16 107 0.0 0.0 0.00 0.00 0.00 99 1014.1
20260510091542 16 107 0.0 0.0 0.00 0.00 0.00 99 1013.9
20260510090034 16 107 0.0 0.0 0.00 0.00 0.00 99 1013.6
20260510084534 16 107 0.0 0.0 0.00 0.03 0.00 99 1013.5
20260510083034 16 107 0.0 0.0 0.00 0.03 0.00 99 1013.4
20260510081532 16 107 0.0 0.0 0.00 0.03 0.00 99 1013.4
20260510080031 16 107 0.0 0.0 0.00 0.03 0.00 99 1013.3
20260510074532 16 107 0.0 0.0 0.00 0.03 0.00 99 1013.3
20260510073040 16 107 0.0 0.0 0.00 0.03 0.00 99 1013.4
20260510071529 16 107 0.0 0.0 0.00 0.03 0.00 99 1013.5
20260510070032 16 107 0.0 0.0 0.00 0.03 0.00 98 1013.5
20260510064527 16 107 0.0 0.0 0.00 0.03 0.00 98 1013.5
20260510063027 16 107 0.0 0.0 0.00 0.03 0.00 98 1013.9
20260510061525 16 107 0.0 0.0 0.00 0.03 0.00 99 1013.8
20260510060025 16 107 0.0 0.0 0.00 0.03 0.00 98 1013.8
20260510054522 16 107 0.0 0.0 0.00 0.03 0.00 98 1013.9
20260510053043 16 107 0.0 0.0 0.00 0.03 0.00 98 1013.9
20260510051519 17 107 0.0 0.0 0.00 0.03 0.00 98 1014.0
20260510050024 17 107 0.0 0.0 0.00 0.03 0.00 97 1014.0
20260510044517 17 107 0.0 0.0 0.00 0.03 0.03 98 1014.0
20260510043030 17 107 0.0 0.0 0.00 0.03 0.03 97 1014.0
20260510041522 17 107 0.0 0.0 0.00 0.03 0.03 96 1014.1
20260510040029 17 107 0.0 0.0 0.00 0.03 0.03 96 1014.1
20260510034514 17 107 0.0 0.0 0.00 0.03 0.03 97 1014.2
20260510033113 17 107 0.0 0.0 0.00 0.03 0.03 96 1014.2
20260510031515 18 107 0.0 0.0 0.00 0.03 0.03 96 1014.2
20260510030010 18 107 0.0 0.0 0.00 0.03 0.03 96 1014.0
20260510024509 18 107 0.0 0.0 0.00 0.03 0.03 95 1014.0
20260510023008 18 107 0.0 0.0 0.00 0.03 0.03 95 1014.0
20260510021519 18 107 0.0 0.0 0.00 0.03 0.03 95 1013.6
20260510020004 18 107 0.0 1.6 0.00 0.03 0.03 95 1013.5
20260510014506 18 107 0.0 0.0 0.00 0.03 0.03 94 1013.2
20260510013002 19 107 0.0 0.0 0.00 0.03 0.03 93 1012.9
20260510011502 19 107 0.0 0.0 0.00 0.03 0.03 92 1012.7
20260510010002 19 107 0.0 0.0 0.00 0.03 0.03 92 1012.5
20260510004501 20 107 0.0 0.0 0.00 0.03 0.03 91 1012.3
20260510003103 20 107 0.0 0.0 0.00 0.03 0.03 91 1012.4
20260510001559 20 107 0.0 0.0 0.00 0.03 0.03 90 1012.1
20260509234558 21 107 0.0 0.0 0.00 0.03 0.03 88 1011.7
20260509233058 21 107 0.0 0.0 0.00 0.03 0.03 87 1011.5
20260509231557 21 107 0.0 0.0 0.00 0.03 0.03 86 1011.5
20260509230058 21 107 0.0 0.0 0.00 0.03 0.03 84 1011.4
20260509224557 22 107 0.0 0.0 0.00 0.03 0.03 83 1011.2
20260509223101 22 107 0.0 0.0 0.00 0.03 0.03 82 1011.2
20260509221555 22 107 0.0 3.2 0.00 0.03 0.03 81 1011.0
20260509220054 22 107 0.0 3.2 0.00 0.03 0.03 80 1011.2
20260509214615 23 107 0.0 3.2 0.00 0.03 0.03 78 1010.9